Location: St. Andrews
(45.0670°N, 67.0330°W)
Time: 00:59:04
(UTC-03:00)

Amateur Radio Satellites - All Passes

Search period start: 18 October 2017 00:29
Search period end: 19 October 2017 00:29
Location: St. Andrews, 45.0670°N, 67.0330°W

Satellite Date Start Highest point End Downlink Frequencies (MHz)
Time Altitude Azimuth
DUCHIFAT 1 18 Oct 00:40:08 00:43:02 18° 92° (E) 00:45:54 145.980
FO-29 18 Oct 00:46:07 00:49:41 15° 305° (NW) 00:53:26 435.910
BEESAT 2 18 Oct 00:49:14 00:50:05 11° 252° (WSW) 00:50:54 435.950
SPROUT 18 Oct 00:57:13 01:01:29 80° 77° (ENE) 01:05:48 437.525
DX 1 18 Oct 01:00:29 01:03:22 18° 62° (ENE) 01:06:16 434.975-435.025
ESTCUBE 1 18 Oct 01:18:15 01:21:19 18° 268° (W) 01:24:25 437.505/2401.250
VELOX 1 18 Oct 01:19:06 01:23:29 85° 258° (WSW) 01:27:54 145.980
AIST 2D 18 Oct 01:21:20 01:24:34 36° 288° (WNW) 01:27:46 435.315
UKube-1 18 Oct 01:30:15 01:33:36 22° 64° (ENE) 01:36:57 .
EO-79 18 Oct 01:31:58 01:36:17 81° 105° (ESE) 01:40:31 145.935-145.965
50 SAT 18 Oct 01:33:14 01:36:14 35° 71° (ENE) 01:39:16 437.505
RS-15 18 Oct 01:35:02 01:46:43 54° 112° (ESE) 01:58:25 29.354- 29.394
POLYITAN 1 18 Oct 01:35:50 01:40:09 89° 113° (ESE) 01:44:24 437.675
QB50P2 18 Oct 01:56:02 02:00:11 50° 288° (WNW) 02:04:18 145.880/145.840
Oscar 19 18 Oct 02:00:27 02:04:04 19° 91° (E) 02:07:39 437.125/150
NANOSAT C BR1 18 Oct 02:02:20 02:06:30 53° 288° (WNW) 02:10:37 145.865
Gurwin Techsat 1B 18 Oct 02:08:42 02:12:01 16° 90° (E) 02:15:18 435.225
DUCHIFAT 1 18 Oct 02:14:51 02:18:55 45° 289° (WNW) 02:22:56 145.980
M-CUBED/EXP-1 PRIME 18 Oct 02:16:40 02:18:25 13° 99° (E) 02:20:13 437.505
BUGSAT 1 18 Oct 02:34:01 02:38:17 79° 102° (ESE) 02:42:30 437.445
DX 1 18 Oct 02:34:58 02:39:10 51° 260° (W) 02:43:25 434.975-435.025
SPROUT 18 Oct 02:37:40 02:37:56 10° 272° (W) 02:38:13 437.525
MOZHAYETS 4 18 Oct 03:01:37 03:05:38 29° 67° (ENE) 03:09:38
ITUPSAT 1 18 Oct 03:03:23 03:07:32 30° 66° (ENE) 03:11:41 437.325
UKube-1 18 Oct 03:05:24 03:09:24 37° 262° (W) 03:13:25 .
50 SAT 18 Oct 03:07:11 03:08:44 13° 268° (W) 03:10:18 437.505
EO-79 18 Oct 03:09:53 03:11:23 12° 301° (WNW) 03:12:52 145.935-145.965
POLYITAN 1 18 Oct 03:14:13 03:15:14 11° 302° (WNW) 03:16:14 437.675
BEESAT 18 Oct 03:20:27 03:24:57 42° 69° (ENE) 03:29:28 436.000
Oscar 19 18 Oct 03:38:44 03:43:46 58° 289° (WNW) 03:48:46 437.125/150
RS-15 18 Oct 03:47:09 03:59:16 58° 317° (NW) 04:11:20 29.354- 29.394
Gurwin Techsat 1B 18 Oct 03:47:10 03:52:29 71° 288° (WNW) 03:57:46 435.225
M-CUBED/EXP-1 PRIME 18 Oct 03:49:42 03:53:01 44° 293° (WNW) 03:56:32 437.505
ITAMSAT 1 18 Oct 04:06:01 04:09:37 18° 91° (E) 04:13:12 435.822/435.867
BUGSAT 1 18 Oct 04:11:27 04:13:00 12° 301° (WNW) 04:14:33 437.445
NO-84 18 Oct 04:11:51 04:15:05 21° 128° (SE) 04:18:16 435.350 FM
AO-7 18 Oct 04:18:16 04:25:47 36° 97° (E) 04:33:16 .
MOZHAYETS 4 18 Oct 04:38:32 04:42:42 32° 264° (W) 04:46:53
ITUPSAT 1 18 Oct 04:40:52 04:45:15 34° 263° (W) 04:49:39 437.325
CUBESAT XI-V 18 Oct 04:41:34 04:46:09 66° 74° (ENE) 04:50:45 437.345
KKS-1 18 Oct 04:49:33 04:53:13 26° 66° (ENE) 04:56:56 437.445
BEESAT 18 Oct 04:59:04 05:02:53 23° 266° (W) 05:06:42 436.000
Gurwin Techsat 1B 18 Oct 05:29:44 05:31:28 12° 306° (NW) 05:33:13 435.225
STARS 18 Oct 05:30:10 05:33:55 28° 66° (ENE) 05:37:41 437.465
ITAMSAT 1 18 Oct 05:44:19 05:49:30 62° 289° (WNW) 05:54:40 435.822/435.867
NO-84 18 Oct 05:47:53 05:52:11 73° 325° (NW) 05:56:20 435.350 FM
DOVE 4 18 Oct 06:00:00 06:04:23 31° 96° (E) 06:08:55 437.250
RS-15 18 Oct 06:04:35 06:15:07 31° 348° (NNW) 06:25:25 29.354- 29.394
AO-7 18 Oct 06:10:48 06:18:50 57° 297° (WNW) 06:26:53 .
O/OREOS (USA 219) 18 Oct 06:12:38 06:15:14 15° 48° (NE) 06:17:49 437.305
CUBESAT XI-V 18 Oct 06:21:29 06:23:58 14° 271° (W) 06:26:26 437.345
KKS-1 18 Oct 06:25:37 06:29:38 34° 263° (W) 06:33:42 437.445
XW-2C 18 Oct 06:47:08 06:49:50 19° 93° (E) 06:52:30 145.795 - 145.815
HO-68 18 Oct 07:03:14 07:06:37 14° 86° (E) 07:10:00 435.675
STARS 18 Oct 07:06:17 07:10:10 30° 264° (W) 07:14:05 437.465
NO-84 18 Oct 07:26:37 07:30:08 25° 344° (NNW) 07:33:30 435.350 FM
ITAMSAT 1 18 Oct 07:27:46 07:27:56 10° 308° (NW) 07:28:06 435.822/435.867
LilacSat-2 18 Oct 07:33:08 07:36:54 71° 101° (E) 07:40:39 437.200
CUTE-I 18 Oct 07:33:46 07:39:00 50° 100° (E) 07:44:12 437.470
XW-2F 18 Oct 07:33:46 07:37:29 62° 101° (E) 07:41:09 145.980 - 146.000
FO-29 18 Oct 07:35:13 07:35:26 10° 50° (NE) 07:35:38 435.910
KAITUO 1B 18 Oct 07:36:43 07:40:21 52° 100° (E) 07:43:55 145.475/437.950
DOVE 4 18 Oct 07:37:38 07:42:02 35° 291° (WNW) 07:46:37 437.250
SO-50 18 Oct 07:39:17 07:42:50 23° 113° (ESE) 07:46:25 436.795
STRAND 1 18 Oct 07:41:12 07:46:13 59° 71° (ENE) 07:51:18 437.568
XW-2D 18 Oct 07:43:57 07:47:43 87° 282° (WNW) 07:51:27 145.860 - 145.880
O/OREOS (USA 219) 18 Oct 07:50:39 07:55:17 83° 248° (WSW) 07:59:52 437.305
NUDT-PHONESAT 18 Oct 07:55:25 07:59:07 87° 103° (ESE) 08:02:46 437.300
XW-2B 18 Oct 07:57:21 08:01:05 63° 285° (WNW) 08:04:46 145.730 - 145.750
AO-7 18 Oct 08:05:31 08:09:52 16° 319° (NW) 08:14:14 .
CUTE 1.7 + AOD 2 18 Oct 08:10:35 08:14:29 36° 97° (E) 08:18:22 437.475
XW-2C 18 Oct 08:20:43 08:24:06 32° 290° (WNW) 08:27:27 145.795 - 145.815
RS-15 18 Oct 08:21:20 08:32:15 36° 23° (NNE) 08:42:41 29.354- 29.394
SEEDS 18 Oct 08:23:02 08:26:45 31° 96° (E) 08:30:28 437.485
XW-2A 18 Oct 08:37:25 08:40:09 23° 95° (E) 08:42:52 145.665 - 145.685
CUBEBUG 2 18 Oct 08:43:15 08:47:49 50° 98° (E) 08:52:14 437.445
HO-68 18 Oct 08:48:17 08:55:32 75° 105° (ESE) 09:02:44 435.675
AO-73 18 Oct 08:51:08 08:53:58 17° 90° (E) 08:56:45 145.935
AAUSAT CUBESAT 2 18 Oct 08:55:01 08:58:42 30° 96° (E) 09:02:21 437.432
NO-84 18 Oct 09:05:32 09:08:35 20° 5° (N) 09:11:29 435.350 FM
XW-2F 18 Oct 09:09:54 09:11:05 11° 298° (WNW) 09:12:15 145.980 - 146.000
LilacSat-2 18 Oct 09:10:02 09:10:37 10° 299° (WNW) 09:11:12 437.200
ZACube-1 18 Oct 09:10:47 09:14:40 30° 95° (E) 09:18:28 437.345
KAITUO 1B 18 Oct 09:12:13 09:13:54 13° 297° (WNW) 09:15:34 145.475/437.950
FO-29 18 Oct 09:14:10 09:19:17 64° 72° (ENE) 09:24:48 435.910
CUTE-I 18 Oct 09:14:25 09:18:44 25° 298° (WNW) 09:23:02 437.470
YUBILEINY 18 Oct 09:15:48 09:22:27 25° 80° (E) 09:29:08 435.215
SO-50 18 Oct 09:18:43 09:23:01 46° 312° (NW) 09:27:24 436.795
STRAND 1 18 Oct 09:22:13 09:25:48 19° 269° (W) 09:29:24 437.568
UNISAT 6 18 Oct 09:23:06 09:26:40 22° 64° (ENE) 09:30:16 437.425
PCSat 18 Oct 09:26:26 09:31:34 45° 114° (ESE) 09:36:43 145.827
UWE-3 18 Oct 09:26:53 09:31:29 82° 102° (ESE) 09:35:55 435.000/436.395/437.385
TIGRISAT 18 Oct 09:38:11 09:42:07 28° 66° (ENE) 09:46:06 435.000
PRISM 18 Oct 09:41:39 09:43:45 14° 61° (ENE) 09:45:51 437.425
CUTE 1.7 + AOD 2 18 Oct 09:46:53 09:50:07 22° 294° (WNW) 09:53:20 437.475
Oscar 11 18 Oct 09:51:57 09:56:09 49° 99° (E) 10:00:19 .
SEEDS 18 Oct 09:58:55 10:02:19 25° 293° (WNW) 10:05:44 437.485
XW-2A 18 Oct 10:10:11 10:12:46 21° 292° (WNW) 10:15:20 145.665 - 145.685
CUBEBUG 2 18 Oct 10:20:38 10:24:03 20° 297° (WNW) 10:27:23 437.445
AO-73 18 Oct 10:26:14 10:30:30 49° 289° (WNW) 10:34:39 145.935
AAUSAT CUBESAT 2 18 Oct 10:30:39 10:34:01 25° 293° (WNW) 10:37:23 437.432
RS-15 18 Oct 10:34:49 10:46:55 79° 53° (NE) 10:58:19 29.354- 29.394
EO-88 18 Oct 10:35:20 10:37:37 16° 92° (E) 10:39:53 145.990 - 145.960
HO-68 18 Oct 10:36:57 10:42:35 26° 304° (NW) 10:48:13 435.675
Max Valier Satellite 18 Oct 10:38:42 10:41:45 24° 95° (E) 10:44:46 145.860
NO-84 18 Oct 10:43:07 10:46:49 39° 26° (NNE) 10:50:14 435.350 FM
DELFI C3 18 Oct 10:46:37 10:50:24 42° 98° (E) 10:54:10 145.870
ZACube-1 18 Oct 10:47:05 10:50:53 28° 293° (WNW) 10:54:34 437.345
UNISAT 6 18 Oct 10:58:37 11:03:03 45° 261° (W) 11:07:35 437.425
FO-29 18 Oct 11:01:46 11:05:04 17° 272° (W) 11:08:31 435.910
SO-50 18 Oct 11:03:04 11:04:38 12° 334° (NNW) 11:06:12 436.795
UWE-3 18 Oct 11:05:15 11:07:14 13° 301° (WNW) 11:09:11 435.000/436.395/437.385
YUBILEINY 18 Oct 11:09:41 11:18:21 74° 280° (W) 11:27:07 435.215
PCSat 18 Oct 11:10:14 11:15:06 33° 314° (NW) 11:20:00 145.827
TIGRISAT 18 Oct 11:14:26 11:18:39 35° 264° (W) 11:22:59 435.000
PRISM 18 Oct 11:14:33 11:18:33 60° 259° (WSW) 11:22:34 437.425
QB50P2 18 Oct 11:16:02 11:18:44 17° 63° (ENE) 11:21:28 145.880/145.840
NANOSAT C BR1 18 Oct 11:22:05 11:24:37 16° 62° (ENE) 11:27:10 145.865
Oscar 11 18 Oct 11:29:01 11:31:55 18° 297° (WNW) 11:34:48 .
DUCHIFAT 1 18 Oct 11:33:51 11:36:43 18° 63° (ENE) 11:39:37 145.980
LO-87 18 Oct 11:34:27 11:35:05 10° 89° (E) 11:35:43 145.935 - 145.965
nSIGHT-1 18 Oct 11:42:58 11:45:55 35° 141° (SE) 11:48:53 .
AIST 2D 18 Oct 11:56:36 12:00:07 82° 256° (WSW) 12:03:39 435.315
EO-88 18 Oct 12:08:03 12:11:24 36° 289° (WNW) 12:14:45 145.990 - 145.960
ISS 18 Oct 12:09:17 12:12:28 54° 145° (SE) 12:15:41 437.550
Max Valier Satellite 18 Oct 12:12:28 12:15:31 25° 292° (WNW) 12:18:32 145.860
NO-84 18 Oct 12:20:45 12:24:10 34° 227° (SW) 12:27:19 435.350 FM
DELFI C3 18 Oct 12:22:12 12:24:50 17° 295° (WNW) 12:27:28 145.870
EO-79 18 Oct 12:25:41 12:29:56 76° 74° (ENE) 12:34:13 145.935-145.965
POLYITAN 1 18 Oct 12:29:41 12:33:57 84° 77° (ENE) 12:38:17 437.675
SPROUT 18 Oct 12:42:47 12:44:23 12° 89° (E) 12:45:58 437.525
RS-15 18 Oct 12:48:21 12:58:08 32° 256° (WSW) 13:07:32 29.354- 29.394
QB50P2 18 Oct 12:49:56 12:54:07 53° 260° (W) 12:58:20 145.880/145.840
NANOSAT C BR1 18 Oct 12:55:41 12:59:51 57° 259° (W) 13:04:06 145.865
M-CUBED/EXP-1 PRIME 18 Oct 13:03:55 13:06:38 23° 63° (ENE) 13:09:16 437.505
LO-87 18 Oct 13:05:15 13:08:50 57° 286° (WNW) 13:12:24 145.935 - 145.965
ESTCUBE 1 18 Oct 13:06:40 13:11:11 82° 103° (ESE) 13:15:40 437.505/2401.250
DUCHIFAT 1 18 Oct 13:07:55 13:12:01 48° 261° (W) 13:16:10 145.980
VELOX 1 18 Oct 13:08:07 13:10:49 16° 91° (E) 13:13:30 145.980
YUBILEINY 18 Oct 13:11:33 13:16:54 17° 304° (NW) 13:22:18 435.215
Oscar 19 18 Oct 13:18:48 13:23:28 35° 66° (ENE) 13:28:07 437.125/150
nSIGHT-1 18 Oct 13:19:07 13:22:10 41° 340° (NNW) 13:25:15 .
BEESAT 3 18 Oct 13:23:53 13:27:40 41° 119° (ESE) 13:31:28 437.485
BUGSAT 1 18 Oct 13:25:00 13:29:09 70° 74° (ENE) 13:33:22 437.445
Gurwin Techsat 1B 18 Oct 13:31:12 13:35:53 33° 65° (ENE) 13:40:34 435.225
AO-7 18 Oct 13:31:29 13:36:06 16° 42° (NE) 13:40:43 .
ISS 18 Oct 13:46:03 13:49:05 34° 344° (NNW) 13:52:07 437.550
EO-79 18 Oct 14:05:16 14:06:13 11° 272° (W) 14:07:10 145.935-145.965
SPROUT 18 Oct 14:16:26 14:20:45 70° 285° (WNW) 14:25:00 437.525
DX 1 18 Oct 14:21:22 14:24:51 23° 94° (E) 14:28:18 434.975-435.025
50 SAT 18 Oct 14:22:26 14:25:12 24° 96° (E) 14:27:56 437.505
SO-50 18 Oct 14:28:59 14:30:09 11° 25° (NNE) 14:31:21 436.795
M-CUBED/EXP-1 PRIME 18 Oct 14:38:17 14:41:02 22° 258° (WSW) 14:43:43 437.505
BEESAT 2 18 Oct 14:38:38 14:42:38 77° 122° (ESE) 14:46:42 435.950
AO-85 18 Oct 14:41:10 14:44:57 54° 120° (ESE) 14:48:50 145.980
VELOX 1 18 Oct 14:43:15 14:47:36 55° 288° (WNW) 14:51:56 145.980
ESTCUBE 1 18 Oct 14:45:29 14:47:20 12° 301° (WNW) 14:49:10 437.505/2401.250
UKube-1 18 Oct 14:50:09 14:53:55 29° 96° (E) 14:57:40 .
nSIGHT-1 18 Oct 14:56:18 14:59:00 24° 360° (N) 15:01:41 .
Oscar 19 18 Oct 14:58:09 15:02:46 32° 264° (W) 15:07:24 437.125/150
BEESAT 3 18 Oct 15:02:00 15:05:21 25° 317° (NW) 15:08:43 437.485
BUGSAT 1 18 Oct 15:03:36 15:04:58 11° 271° (W) 15:06:22 437.445
Gurwin Techsat 1B 18 Oct 15:10:52 15:15:44 37° 263° (W) 15:20:39 435.225
AO-7 18 Oct 15:19:08 15:27:13 60° 64° (ENE) 15:35:19 .
ISS 18 Oct 15:23:22 15:26:09 25° 4° (N) 15:28:56 437.550
ITAMSAT 1 18 Oct 15:25:30 15:30:10 35° 66° (ENE) 15:34:52 435.822/435.867
50 SAT 18 Oct 15:54:55 15:57:24 20° 293° (WNW) 15:59:52 437.505
DX 1 18 Oct 15:57:05 16:01:07 37° 291° (WNW) 16:05:08 434.975-435.025
SO-50 18 Oct 16:07:30 16:11:51 40° 47° (NE) 16:16:14 436.795
BEESAT 2 18 Oct 16:18:12 16:20:51 17° 323° (NW) 16:23:33 435.950
AO-85 18 Oct 16:22:44 16:25:39 20° 321° (NW) 16:28:41 145.980
UKube-1 18 Oct 16:26:09 16:29:53 29° 293° (WNW) 16:33:36 .
PCSat 18 Oct 16:29:54 16:32:48 14° 31° (NNE) 16:35:41 145.827
MOZHAYETS 4 18 Oct 16:30:51 16:35:19 50° 99° (E) 16:39:45
nSIGHT-1 18 Oct 16:32:46 16:35:50 39° 20° (NNE) 16:38:53 .
CUBESAT XI-V 18 Oct 16:37:31 16:39:52 14° 89° (E) 16:42:14 437.345
ITUPSAT 1 18 Oct 16:38:41 16:43:23 51° 100° (E) 16:48:02 437.325
BEESAT 18 Oct 16:55:41 17:00:30 76° 103° (ESE) 17:05:16 436.000
ISS 18 Oct 16:59:53 17:03:06 52° 24° (NNE) 17:06:19 437.550
ITAMSAT 1 18 Oct 17:04:59 17:09:37 33° 264° (W) 17:14:18 435.822/435.867
DOVE 4 18 Oct 17:07:52 17:11:36 33° 69° (ENE) 17:15:31 437.250
AO-7 18 Oct 17:13:01 17:20:21 34° 264° (W) 17:27:45 .
CUTE-I 18 Oct 17:20:28 17:23:33 16° 57° (ENE) 17:26:38 437.470
XW-2C 18 Oct 17:31:05 17:33:01 14° 63° (ENE) 17:34:57 145.795 - 145.815
HO-68 18 Oct 17:35:11 17:39:07 16° 48° (NE) 17:43:02 435.675
SO-50 18 Oct 17:48:13 17:52:11 29° 245° (WSW) 17:56:11 436.795
MOZHAYETS 4 18 Oct 18:08:50 18:12:06 20° 297° (WNW) 18:15:22
nSIGHT-1 18 Oct 18:09:05 18:12:07 39° 218° (SW) 18:15:08 .
PCSat 18 Oct 18:12:03 18:17:24 57° 53° (NE) 18:22:43 145.827
CUBESAT XI-V 18 Oct 18:13:08 18:17:42 67° 286° (WNW) 18:22:15 437.345
KKS-1 18 Oct 18:13:58 18:18:10 37° 98° (E) 18:22:19 437.445
XW-2F 18 Oct 18:16:07 18:19:39 38° 71° (ENE) 18:23:10 145.980 - 146.000
LilacSat-2 18 Oct 18:16:29 18:20:10 45° 72° (ENE) 18:23:49 437.200
ITUPSAT 1 18 Oct 18:17:17 18:20:51 21° 298° (WNW) 18:24:24 437.325
KAITUO 1B 18 Oct 18:18:19 18:21:40 32° 70° (ENE) 18:25:00 145.475/437.950
XW-2D 18 Oct 18:26:30 18:30:14 57° 74° (ENE) 18:33:58 145.860 - 145.880
BEESAT 18 Oct 18:35:00 18:37:40 15° 301° (WNW) 18:40:19 436.000
NUDT-PHONESAT 18 Oct 18:35:51 18:39:27 49° 73° (ENE) 18:43:04 437.300
ISS 18 Oct 18:36:38 18:39:26 26° 221° (SW) 18:42:14 437.550
XW-2B 18 Oct 18:39:49 18:43:37 79° 76° (ENE) 18:47:25 145.730 - 145.750
DOVE 4 18 Oct 18:46:04 18:49:24 23° 267° (W) 18:52:51 437.250
UWE-3 18 Oct 18:52:37 18:53:53 11° 58° (ENE) 18:55:09 435.000/436.395/437.385
STARS 18 Oct 18:52:53 18:57:03 39° 98° (E) 19:01:13 437.465
CUTE-I 18 Oct 18:57:34 19:02:53 84° 256° (WSW) 19:08:15 437.470
XW-2C 18 Oct 19:03:03 19:06:46 52° 260° (W) 19:10:30 145.795 - 145.815
CUTE 1.7 + AOD 2 18 Oct 19:04:54 19:08:42 33° 69° (ENE) 19:12:31 437.475
XW-2A 18 Oct 19:11:34 19:13:00 12° 64° (ENE) 19:14:27 145.665 - 145.685
SEEDS 18 Oct 19:16:29 19:20:02 28° 68° (ENE) 19:23:36 437.485
HO-68 18 Oct 19:18:28 19:25:33 67° 69° (ENE) 19:32:41 435.675
YUBILEINY 18 Oct 19:22:40 19:27:04 14° 52° (NE) 19:31:28 435.215
CUBEBUG 2 18 Oct 19:42:29 19:47:00 51° 72° (ENE) 19:51:37 437.445
AAUSAT CUBESAT 2 18 Oct 19:46:56 19:50:23 26° 68° (ENE) 19:53:49 437.432
AO-73 18 Oct 19:48:12 19:51:22 19° 63° (ENE) 19:54:32 145.935
STRAND 1 18 Oct 19:50:43 19:54:06 17° 90° (E) 19:57:26 437.568
KKS-1 18 Oct 19:50:53 19:54:31 24° 295° (WNW) 19:58:07 437.445
XW-2F 18 Oct 19:51:28 19:53:54 16° 268° (W) 19:56:21 145.980 - 146.000
LilacSat-2 18 Oct 19:52:30 19:54:39 14° 269° (W) 19:56:49 437.200
KAITUO 1B 18 Oct 19:52:59 19:55:42 19° 267° (W) 19:58:26 145.475/437.950
PCSat 18 Oct 19:56:11 20:00:25 24° 252° (WSW) 20:04:37 145.827
XW-2D 18 Oct 20:03:29 20:04:45 11° 270° (W) 20:06:02 145.860 - 145.880
ZACube-1 18 Oct 20:07:54 20:11:56 31° 68° (ENE) 20:15:58 437.345
NUDT-PHONESAT 18 Oct 20:11:56 20:13:36 12° 270° (W) 20:15:15 437.300
UWE-3 18 Oct 20:24:53 20:29:31 81° 76° (ENE) 20:34:14 435.000/436.395/437.385
STARS 18 Oct 20:29:41 20:33:10 23° 296° (WNW) 20:36:39 437.465
CUTE 1.7 + AOD 2 18 Oct 20:41:10 20:44:35 23° 266° (W) 20:48:00 437.475
XW-2A 18 Oct 20:42:01 20:45:19 46° 261° (W) 20:48:38 145.665 - 145.685
CUTE-I 18 Oct 20:42:06 20:43:44 11° 273° (W) 20:45:21 437.470
Oscar 11 18 Oct 20:48:15 20:52:25 48° 72° (ENE) 20:56:35 .
SEEDS 18 Oct 20:52:04 20:55:40 27° 265° (W) 20:59:16 437.485
HO-68 18 Oct 21:08:05 21:13:49 26° 268° (W) 21:19:37 435.675
EO-88 18 Oct 21:16:37 21:17:15 10° 62° (ENE) 21:17:54 145.990 - 145.960
YUBILEINY 18 Oct 21:17:15 21:26:00 63° 77° (ENE) 21:34:42 435.215
BEESAT 2 18 Oct 21:17:45 21:20:04 15° 35° (NE) 21:22:21 435.950
Max Valier Satellite 18 Oct 21:19:56 21:22:15 16° 65° (ENE) 21:24:34 145.860
CUBEBUG 2 18 Oct 21:20:37 21:23:55 19° 270° (W) 21:27:15 437.445
AAUSAT CUBESAT 2 18 Oct 21:22:11 21:25:45 28° 265° (W) 21:29:19 437.432
AO-73 18 Oct 21:22:44 21:27:12 53° 261° (W) 21:31:41 145.935
STRAND 1 18 Oct 21:28:35 21:33:43 65° 288° (WNW) 21:38:49 437.568
AO-85 18 Oct 21:30:05 21:32:58 17° 36° (NE) 21:35:58 145.980
DELFI C3 18 Oct 21:33:38 21:37:05 31° 70° (ENE) 21:40:35 145.870
BEESAT 3 18 Oct 21:38:31 21:42:23 46° 50° (NE) 21:46:10 437.485
ZACube-1 18 Oct 21:44:08 21:48:09 30° 265° (W) 21:52:12 437.345
FO-29 18 Oct 22:03:55 22:10:33 54° 100° (E) 22:17:53 435.910
O/OREOS (USA 219) 18 Oct 22:04:34 22:09:07 80° 114° (ESE) 22:13:45 437.305
UWE-3 18 Oct 22:04:53 22:06:32 12° 273° (W) 22:08:13 435.000/436.395/437.385
Oscar 11 18 Oct 22:25:54 22:28:48 17° 269° (W) 22:31:43 .
ESTCUBE 1 18 Oct 22:34:27 22:36:05 12° 58° (ENE) 22:37:43 437.505/2401.250
EO-88 18 Oct 22:46:44 22:50:22 67° 259° (WSW) 22:54:01 145.990 - 145.960
UNISAT 6 18 Oct 22:48:18 22:52:30 33° 96° (E) 22:56:37 437.425
Max Valier Satellite 18 Oct 22:52:12 22:55:45 41° 262° (W) 22:59:19 145.860
BEESAT 2 18 Oct 22:54:21 22:58:26 85° 54° (NE) 23:02:26 435.950
PRISM 18 Oct 22:54:40 22:57:11 16° 92° (E) 22:59:41 437.425
TIGRISAT 18 Oct 23:03:30 23:07:57 43° 98° (E) 23:12:17 435.000
DELFI C3 18 Oct 23:08:52 23:11:53 21° 266° (W) 23:14:56 145.870
AO-85 18 Oct 23:09:27 23:13:58 85° 55° (NE) 23:18:51 145.980
STRAND 1 18 Oct 23:11:18 23:11:54 10° 307° (NW) 23:12:30 437.568
YUBILEINY 18 Oct 23:14:51 23:22:13 31° 278° (W) 23:29:34 435.215
BEESAT 3 18 Oct 23:16:50 23:19:35 18° 248° (WSW) 23:22:18 437.485
SPROUT 18 Oct 23:38:06 23:40:02 13° 60° (ENE) 23:41:58 437.525
LO-87 18 Oct 23:42:27 23:46:01 72° 75° (ENE) 23:49:39 145.935 - 145.965
O/OREOS (USA 219) 18 Oct 23:46:30 23:49:09 15° 312° (NW) 23:51:50 437.305
FO-29 18 Oct 23:49:30 23:55:22 34° 296° (WNW) 00:01:47 435.910
VELOX 1 19 Oct 00:07:12 00:10:14 19° 63° (ENE) 00:13:18 145.980
ESTCUBE 1 19 Oct 00:07:42 00:12:11 87° 250° (WSW) 00:16:43 437.505/2401.250
EO-79 19 Oct 00:10:52 00:11:50 11° 88° (E) 00:12:48 145.935-145.965
POLYITAN 1 19 Oct 00:14:28 00:16:05 12° 89° (E) 00:17:41 437.675
